Flag for Colombia Weather past 2 weeks in Bucaramanga, Colombia

Now
79 °F

Scattered clouds.


Feels Like: 81 °F
Forecast: 68 / 87 °F
Wind: 6 mph from Northwest

Location: Bucaramanga / Palonegro

Current Time: Aug 2, 2015 at 2:31:28 PM

Latest Report: Aug 2, 2015 at 2:00 PM


Visibility: N/A

Pressure: 29.90 "Hg (26.81 "Hg at 956m altitude)

Humidity: 65%

Dew point: 66 °F

Location of BucaramangaLocation

Historic Weather in Bucaramanga — Graph

°F

Bucaramanga temperature yesterday

Maximum temperature yesterday: 84 °F (at 11:00 AM)
Minimum temperature yesterday: 68 °F (at 7:00 AM)
Average temperature yesterday: 75 °F

Past Weeks' High & Low Weather Summary

 TemperatureHumidityPressure
High84 °F (Aug 1, 11:00 AM)100% (Jul 19, 10:00 PM)30.10 "Hg (Jul 19, 10:00 PM)
Low64 °F (Jul 22, 6:00 AM)45% (Jul 25, 11:00 AM)29.87 "Hg (Jul 26, 4:00 PM)
Average73 °F78%29.99 "Hg
* Reported Jul 18 1:00 PM — Aug 2 1:00 PM, Bucaramanga, Weather by CustomWeather, © 2015

Note: Actual official high and low records may vary slightly from our data, if they occured in-between our weather recording intervals... More about our weather records

Advertising

Bucaramanga weather history for previous 24 hours

 ConditionsComfort  
Time TempWeatherWind HumidityBarometerVisibility
1:00 PM
Sun, Aug 2
79 °FScattered showers. Scattered clouds.12 mph70%29.93 "HgN/A
12:00 PM81 °FScattered clouds.6 mph58%29.95 "HgN/A
11:00 AM82 °FScattered clouds.7 mph55%29.95 "HgN/A
10:00 AM82 °FScattered clouds.3 mph55%29.97 "HgN/A
9:00 AM81 °FScattered clouds.7 mph54%29.98 "HgN/A
8:00 AM75 °FScattered clouds.3 mph69%29.98 "HgN/A
7:00 AM72 °FPartly sunny.3 mph69%29.97 "HgN/A
6:00 AM70 °FPartly sunny.2 mph83%29.96 "HgN/A
11:00 PM
Sat, Aug 1
73 °FPassing clouds.2 mph74%30.01 "HgN/A
10:00 PM73 °FPassing clouds.5 mph74%29.99 "HgN/A
9:00 PM72 °FPassing clouds.2 mph83%29.99 "HgN/A
8:00 PM73 °FPassing clouds.2 mph78%29.94 "HgN/A
7:00 PM73 °FPassing clouds.8 mph78%29.92 "HgN/A
6:00 PM75 °FScattered clouds.8 mph74%29.90 "HgN/A
5:00 PM79 °FScattered clouds.7 mph61%29.90 "HgN/A
4:00 PM77 °FScattered clouds.7 mph65%29.90 "HgN/A
3:00 PM77 °FScattered clouds.6 mph74%29.91 "HgN/A
2:00 PM79 °FScattered clouds.3 mph65%29.93 "HgN/A
Weather by CustomWeather, © 2015

See weather overviewHow to use our weather pages